Weather History for Newport, AR

Change the Weather History Date:

Sunday, May 19, 2013

  Actual Average (KJBR) Record (KJBR)
Temperature  
Mean Temperature 79 °F 70 °F  
Max Temperature 86 °F 81 °F 95 °F (1998)
Min Temperature 72 °F 59 °F 42 °F (2002)
Degree Days  
Heating Degree Days 0 1  
Month to date heating degree days 31  
Since 1 July heating degree days 3646  
Cooling Degree Days 14 6  
Month to date cooling degree days 75  
Year to date cooling degree days 122  
Growing Degree Days 29 (Base 50)    
Moisture  
Dew Point 71 °F    
Average Humidity 78    
Maximum Humidity 100    
Minimum Humidity 55    
Precipitation  
Precipitation 0.00 in 0.13 in 0.99 in (1927)
Month to date precipitation 3.23  
Year to date precipitation 19.90  
Snow  
Snow 0.00 in 0.00 in - ()
Month to date snowfall 0.0  
Since 1 July snowfall 4.8  
Snow Depth -    
Sea Level Pressure  
Sea Level Pressure 29.87 in    
Wind  
Wind Speed 11 mph (South)    
Max Wind Speed 20 mph    
Max Gust Speed -    
Visibility 9 miles    
Events      
T = Trace of Precipitation, MM = Missing Value Source: NWS Daily Summary

Daily Weather History Graph

Daily Weather History Graph

Search for Another Location

Airport:

Trip Planner

Search our weather history database for the weather conditions in past years. The results will help you decide how hot, cold, wet, or windy it might be!

Date:

Astronomy

May. 19, 2013 Rise Set
Actual Time 5:56 AM CDT 8:06 PM CDT
Civil Twilight 5:27 AM CDT 8:34 PM CDT
Nautical Twilight 4:52 AM CDT 9:10 PM CDT
Astronomical Twilight 4:15 AM CDT 9:48 PM CDT
Moon 2:22 PM CDT (5/19) 2:07 AM CDT (5/19)
Length of Visible Light 15h 06m
Length of Day
14h 09m
Waxing Gibbous, 65% of the Moon is Illuminated
May 19
Waxing Gibbous
May 24
Full
May 31
Last Quarter
Jun 8
New
Jun 16
First Quarter

Hourly Weather History & Observations

Time (CDT) Temp. Heat Index Dew Point Humidity Pressure Visibility Wind Dir Wind Speed Gust Speed Precip Events Conditions
12:56 AM 75.9 °F - 73.9 °F 94% 29.90 in 8.0 mi SSE 6.9 mph - N/A   Overcast
1:56 AM 73.9 °F - 73.9 °F 100% 29.88 in 6.0 mi SSE 5.8 mph - N/A   Clear
2:56 AM 72.9 °F - 72.9 °F 100% 29.88 in 7.0 mi South 8.1 mph - N/A   Clear
3:56 AM 72.9 °F - 72.9 °F 100% 29.88 in 7.0 mi South 8.1 mph - N/A   Clear
4:56 AM 72.9 °F - 72.9 °F 100% 29.87 in 10.0 mi South 12.7 mph - N/A   Clear
5:56 AM 72.0 °F - 72.0 °F 100% 29.87 in 8.0 mi South 10.4 mph - N/A   Clear
6:56 AM 72.9 °F - 72.9 °F 100% 29.91 in 9.0 mi South 6.9 mph - N/A   Clear
7:56 AM 74.8 °F - 72.0 °F 91% 29.93 in 10.0 mi South 9.2 mph - N/A   Scattered Clouds
8:09 AM 75.2 °F - 71.6 °F 89% 29.94 in 10.0 mi South 9.2 mph - N/A   Mostly Cloudy
8:56 AM 74.8 °F - 70.9 °F 87% 29.94 in 10.0 mi South 11.5 mph - N/A   Scattered Clouds
9:56 AM 79.0 °F - 70.0 °F 74% 29.93 in 10.0 mi SSW 13.8 mph - N/A   Clear
10:56 AM 81.9 °F 85.2 °F 68.9 °F 65% 29.92 in 10.0 mi South 12.7 mph - N/A   Clear
11:56 AM 83.8 °F 87.0 °F 68.0 °F 59% 29.91 in 10.0 mi SSW 15.0 mph - N/A   Clear
1:56 PM 86.9 °F 91.7 °F 70.0 °F 57% 29.87 in 10.0 mi South 13.8 mph - N/A   Clear
2:56 PM 86.9 °F 91.0 °F 68.9 °F 55% 29.86 in 10.0 mi South 13.8 mph - N/A   Clear
3:56 PM 86.9 °F 91.0 °F 68.9 °F 55% 29.85 in 10.0 mi South 19.6 mph - N/A   Clear
4:56 PM 86.0 °F 90.7 °F 70.0 °F 59% 29.83 in 10.0 mi South 18.4 mph - N/A   Clear
5:56 PM 86.0 °F 90.7 °F 70.0 °F 59% 29.82 in 10.0 mi South 15.0 mph - N/A   Clear
6:56 PM 83.8 °F 88.6 °F 70.9 °F 65% 29.80 in 10.0 mi South 19.6 mph - N/A   Partly Cloudy
7:56 PM 81.9 °F 85.6 °F 70.0 °F 67% 29.81 in 10.0 mi South 19.6 mph - N/A   Clear
8:56 PM 79.0 °F - 70.0 °F 74% 29.83 in 10.0 mi South 15.0 mph - N/A   Clear
9:56 PM 77.9 °F - 68.9 °F 74% 29.83 in 10.0 mi SSE 15.0 mph - N/A   Clear
10:56 PM 77.0 °F - 68.9 °F 76% 29.86 in 10.0 mi SSE 16.1 mph - N/A   Clear
11:56 PM 75.9 °F - 68.9 °F 79% 29.86 in 10.0 mi SSE 16.1 mph - N/A   Clear